EW5383 Weather Reports


Display with metric or nautical units.
time (UTC)temp
F
wind
direction
speed
MPH
gust
MPH
rain 1hr
in
rain 24hr
in
rain mn
in
humidity
%
barometer
mb
20260903220056 87 41 0.0 0.0 0.00 0.31 0.07 16 1012.5
20260903214552 89 41 0.0 0.0 0.00 0.31 0.07 29 1012.4
20260903213046 89 41 0.0 0.0 0.00 0.31 0.07 48 1012.2
20260903211600 90 37 0.0 0.0 0.00 0.31 0.07 49 1012.1
20260903210039 90 239 0.0 0.0 0.00 0.31 0.07 54 1012.1
20260903204533 92 51 0.0 0.0 0.00 0.85 0.07 58 1012.3
20260903203032 94 244 0.0 0.0 0.00 0.85 0.07 55 1012.3
20260903201523 92 66 0.0 0.0 0.00 0.85 0.07 49 1012.6
20260903200020 91 110 0.0 0.0 0.00 0.85 0.07 52 1012.8
20260903194515 90 169 0.0 0.0 0.04 0.85 0.07 22 1013.0
20260903193010 87 103 0.0 0.0 0.07 0.85 0.07 1 1013.3
20260903191510 84 92 0.0 0.0 0.07 0.85 0.07 1 1013.5
20260903190002 83 60 0.0 0.0 0.07 0.85 0.07 1 1013.4
20260903184601 83 32 0.0 0.0 0.03 0.81 0.03 1 1013.3
20260903183053 84 48 0.0 0.0 0.00 0.78 0.00 1 1013.9
20260903181550 84 306 0.0 0.0 0.00 0.78 0.00 1 1014.1
20260903180044 85 168 0.0 0.0 0.00 0.78 0.00 1 1013.9
20260903174540 87 267 0.0 0.0 0.00 0.78 0.00 1 1014.3
20260903173039 90 236 0.0 1.0 0.00 0.78 0.00 41 1014.0
20260903171535 94 176 0.0 0.0 0.00 0.78 0.00 58 1013.9
20260903170031 92 227 0.0 0.0 0.00 0.78 0.00 56 1013.9
20260903164522 91 120 0.0 0.0 0.00 0.78 0.00 54 1014.1
20260903163018 91 195 0.0 0.0 0.00 0.78 0.00 50 1014.3
20260903161514 91 110 0.0 0.0 0.00 0.78 0.00 39 1014.4
20260903160009 89 172 0.0 1.0 0.00 0.78 0.00 28 1014.7
20260903154504 89 203 0.0 0.0 0.00 0.78 0.00 9 1014.7
20260903153109 88 108 0.0 0.0 0.00 0.78 0.00 7 1014.8
20260903151558 88 159 0.0 1.0 0.00 0.78 0.00 1 1014.8
20260903150052 87 117 0.0 1.0 0.00 0.78 0.00 1 1014.7
20260903144547 87 105 0.0 1.0 0.00 0.78 0.00 1 1014.5
20260903143048 86 171 0.0 1.0 0.00 0.78 0.00 1 1014.5
20260903141540 86 122 0.0 1.0 0.00 0.78 0.00 1 1014.4
20260903140041 85 210 0.0 1.0 0.00 0.78 0.00 1 1014.5
20260903134530 84 202 0.0 0.0 0.00 0.78 0.00 1 1014.6
20260903133027 84 97 0.0 1.0 0.00 0.78 0.00 1 1014.5
20260903131521 83 155 0.0 0.0 0.00 0.78 0.00 1 1014.5
20260903130016 82 187 0.0 0.0 0.00 0.78 0.00 1 1014.5
20260903124521 80 175 0.0 0.0 0.00 0.78 0.00 1 1014.4
20260903123014 79 207 0.0 1.0 0.00 0.78 0.00 1 1014.3
20260903121502 78 167 0.0 0.0 0.00 0.78 0.00 1 1014.2
20260903120108 77 195 0.0 0.0 0.00 0.78 0.00 1 1014.0
20260903114556 0 0.0 0.0 0.00 0.78 0.00 1013.8
20260903113049 0 0.0 0.0 0.00 0.78 0.00 1013.4
20260903111545 0 0.0 0.0 0.00 0.78 0.00 1013.4
20260903110044 0 0.0 0.0 0.00 0.78 0.00 1013.4
20260903104536 0 0.0 0.0 0.00 0.78 0.00 1013.4
20260903103032 0 0.0 0.0 0.00 0.78 0.00 1013.3
20260903101527 0 0.0 0.0 0.00 0.78 0.00 1013.3
20260903100024 0 0.0 0.0 0.00 0.78 0.00 1013.0
20260903094522 0 0.0 0.0 0.00 0.78 0.00 1012.8
20260903093018 0 0.0 0.0 0.00 0.78 0.00 1012.6
20260903091511 0 0.0 0.0 0.00 0.78 0.00 1012.4
20260903090006 0 0.0 0.0 0.00 0.78 0.00 1012.4
20260903084501 0 0.0 0.0 0.00 0.78 0.00 1012.3
20260903083104 0 0.0 0.0 0.00 0.78 0.00 1012.3
20260903081558 0 0.0 0.0 0.00 0.78 0.00 1012.3
20260903080050 0 0.0 0.0 0.00 0.78 0.00 1012.6
20260903074544 0 0.0 0.0 0.00 0.78 0.00 1012.7
20260903073040 0 0.0 0.0 0.00 0.78 0.00 1012.8
20260903071543 0 0.0 0.0 0.00 0.78 0.00 1012.7
20260903070031 0 0.0 0.0 0.00 0.78 0.00 1012.7
20260903064526 0 0.0 0.0 0.00 0.78 0.00 1012.7
20260903063037 0 0.0 0.0 0.00 0.78 0.00 1013.0
20260903061517 0 0.0 0.0 0.00 0.78 0.00 1013.3
20260903060035 0 0.0 0.0 0.00 0.78 0.00 1013.5
20260903054509 0 0.0 0.0 0.00 0.78 0.00 1013.4
20260903053004 0 0.0 0.0 0.00 0.78 0.00 1013.4
20260903051608 0 0.0 0.0 0.00 0.78 0.00 1013.6
20260903050056 0 0.0 0.0 0.00 0.78 0.00 1013.9
20260903044552 0 0.0 0.0 0.00 0.78 0.00 1014.1
20260903043047 0 0.0 0.0 0.00 0.78 0.00 1014.0
20260903041544 0 0.0 0.0 0.00 0.78 0.00 1014.0
20260903040057 0 0.0 0.0 0.00 0.78 0.00 1014.4
20260903034534 0 0.0 0.0 0.00 0.78 0.78 1014.5
20260903033033 0 0.0 0.0 0.00 0.78 0.78 1014.6
20260903031532 0 0.0 0.0 0.00 0.78 0.78 1014.5
20260903030022 0 0.0 0.0 0.00 0.78 0.78 1014.8
20260903024517 0 0.0 0.0 0.00 0.78 0.78 1014.7
20260903023013 0 0.0 0.0 0.00 0.78 0.78 1014.5
20260903021516 0 0.0 0.0 0.00 0.78 0.78 1014.6
20260903020004 75 88 0.0 0.0 0.00 0.78 0.78 1 1014.8
20260903014501 75 88 0.0 0.0 0.00 0.78 0.78 1 1014.4
20260903013001 75 88 0.0 0.0 0.00 0.78 0.78 1 1014.3
20260903011501 75 88 0.0 0.0 0.00 0.78 0.78 1 1014.3
20260903010001 75 88 0.0 0.0 0.00 0.78 0.78 1 1014.3
20260903004558 75 88 0.0 0.0 0.01 0.78 0.78 1 1014.1
20260903003054 75 47 0.0 1.0 0.01 0.78 0.78 1 1013.6
20260903001553 75 53 0.0 1.0 0.17 0.78 0.78 1 1013.5
20260903000045 75 95 0.0 1.0 0.24 0.78 0.78 1 1013.8
20260902234555 76 113 0.0 1.0 0.23 0.78 0.77 1 1014.0
20260902233038 76 86 1.0 2.0 0.23 0.78 0.77 1 1013.8
20260902231541 77 21 0.0 5.0 0.05 0.60 0.59 1 1014.4
20260902230027 81 157 1.0 4.0 0.00 0.55 0.54 1 1014.5
20260902224526 81 51 0.0 0.0 0.00 0.56 0.54 1 1013.8
20260902223026 82 332 0.0 0.0 0.00 0.56 0.54 1 1013.4
20260902221527 82 333 0.0 0.0 0.00 0.56 0.54 1 1013.3